Time,TemperatureF,DewpointF,PressureIn,WindDirection,WindDirectionDegrees,WindSpeedMPH,WindSpeedGustMPH,Humidity,HourlyPrecipIn,Conditions,Clouds,dailyrainin,SoftwareType,DateUTC
2013-11-24 00:09:00,42.6,27.0,30.03,ENE,74,3.0,-999.0,54,-99.99,,,0.00,weatherlink.com 1.10,2013-11-24 08:09:00,
2013-11-24 00:24:00,41.9,26.0,30.03,ENE,74,2.0,-999.0,53,-99.99,,,0.00,weatherlink.com 1.10,2013-11-24 08:24:00,
2013-11-24 00:40:00,41.8,25.0,30.03,ENE,74,3.0,-999.0,52,-99.99,,,0.00,weatherlink.com 1.10,2013-11-24 08:40:00,
2013-11-24 00:54:00,42.0,25.0,30.02,ENE,74,0.0,-999.0,52,-99.99,,,0.00,weatherlink.com 1.10,2013-11-24 08:54:00,
2013-11-24 01:09:00,42.2,25.0,30.03,ENE,74,2.0,-999.0,51,-99.99,,,0.00,weatherlink.com 1.10,2013-11-24 09:09:00,
2013-11-24 01:25:00,42.8,25.0,30.03,ENE,74,2.0,-999.0,50,-99.99,,,0.00,weatherlink.com 1.10,2013-11-24 09:25:00,
2013-11-24 01:40:00,43.2,24.0,30.03,ENE,74,3.0,-999.0,47,-99.99,,,0.00,weatherlink.com 1.10,2013-11-24 09:40:00,
2013-11-24 01:54:00,43.3,25.0,30.03,ENE,74,2.0,-999.0,48,-99.99,,,0.00,weatherlink.com 1.10,2013-11-24 09:54:00,
2013-11-24 02:10:00,43.3,24.0,30.04,ENE,74,1.0,-999.0,46,-99.99,,,0.00,weatherlink.com 1.10,2013-11-24 10:10:00,
2013-11-24 02:24:00,43.1,25.0,30.04,ENE,74,1.0,-999.0,50,-99.99,,,0.00,weatherlink.com 1.10,2013-11-24 10:24:00,
2013-11-24 02:39:00,42.4,24.0,30.04,ENE,74,1.0,-999.0,49,-99.99,,,0.00,weatherlink.com 1.10,2013-11-24 10:39:00,
2013-11-24 02:55:00,41.5,25.0,30.04,ENE,74,2.0,-999.0,52,-99.99,,,0.00,weatherlink.com 1.10,2013-11-24 10:55:00,
2013-11-24 03:09:00,41.4,26.0,30.05,ENE,74,6.0,-999.0,54,-99.99,,,0.00,weatherlink.com 1.10,2013-11-24 11:09:00,
2013-11-24 03:24:00,40.8,26.0,30.05,ENE,71,4.0,-999.0,56,-99.99,,,0.00,weatherlink.com 1.10,2013-11-24 11:24:00,
2013-11-24 03:39:00,40.4,25.0,30.05,ENE,71,3.0,-999.0,55,-99.99,,,0.00,weatherlink.com 1.10,2013-11-24 11:39:00,
2013-11-24 03:54:00,40.4,24.0,30.05,ENE,71,3.0,-999.0,53,-99.99,,,0.00,weatherlink.com 1.10,2013-11-24 11:54:00,
2013-11-24 04:09:00,41.1,24.0,30.05,ENE,71,5.0,-999.0,50,-99.99,,,0.00,weatherlink.com 1.10,2013-11-24 12:09:00,
2013-11-24 04:24:00,41.0,26.0,30.05,ENE,71,2.0,-999.0,55,-99.99,,,0.00,weatherlink.com 1.10,2013-11-24 12:24:00,
2013-11-24 04:40:00,40.9,25.0,30.05,ENE,71,0.0,-999.0,53,-99.99,,,0.00,weatherlink.com 1.10,2013-11-24 12:40:00,
2013-11-24 04:55:00,42.5,26.0,30.06,ENE,71,4.0,-999.0,53,-99.99,,,0.00,weatherlink.com 1.10,2013-11-24 12:55:00,
2013-11-24 05:09:00,41.8,24.0,30.06,ENE,71,2.0,-999.0,50,-99.99,,,0.00,weatherlink.com 1.10,2013-11-24 13:09:00,
2013-11-24 05:24:00,42.0,24.0,30.06,ENE,71,2.0,-999.0,50,-99.99,,,0.00,weatherlink.com 1.10,2013-11-24 13:24:00,
2013-11-24 05:39:00,41.9,24.0,30.06,ENE,71,2.0,-999.0,50,-99.99,,,0.00,weatherlink.com 1.10,2013-11-24 13:39:00,
2013-11-24 05:54:00,41.2,24.0,30.07,ENE,71,3.0,-999.0,51,-99.99,,,0.00,weatherlink.com 1.10,2013-11-24 13:54:00,
2013-11-24 06:09:00,40.9,24.0,30.07,ENE,71,1.0,-999.0,51,-99.99,,,0.00,weatherlink.com 1.10,2013-11-24 14:09:00,
2013-11-24 06:24:00,40.8,25.0,30.07,ENE,71,2.0,-999.0,53,-99.99,,,0.00,weatherlink.com 1.10,2013-11-24 14:24:00,
2013-11-24 06:40:00,40.2,25.0,30.08,ENE,60,3.0,-999.0,54,-99.99,,,0.00,weatherlink.com 1.10,2013-11-24 14:40:00,
2013-11-24 06:54:00,39.7,24.0,30.09,ENE,60,3.0,-999.0,54,-99.99,,,0.00,weatherlink.com 1.10,2013-11-24 14:54:00,
2013-11-24 07:09:00,39.6,24.0,30.09,ENE,60,3.0,-999.0,55,-99.99,,,0.00,weatherlink.com 1.10,2013-11-24 15:09:00,
2013-11-24 07:24:00,40.0,25.0,30.10,ENE,60,3.0,-999.0,56,-99.99,,,0.00,weatherlink.com 1.10,2013-11-24 15:24:00,
2013-11-24 07:39:00,39.9,26.0,30.10,ENE,60,3.0,-999.0,57,-99.99,,,0.00,weatherlink.com 1.10,2013-11-24 15:39:00,
2013-11-24 07:54:00,39.9,26.0,30.10,ENE,60,1.0,-999.0,58,-99.99,,,0.00,weatherlink.com 1.10,2013-11-24 15:54:00,
2013-11-24 08:09:00,41.4,27.0,30.11,ENE,60,0.0,-999.0,57,-99.99,,,0.00,weatherlink.com 1.10,2013-11-24 16:09:00,
2013-11-24 08:24:00,42.1,29.0,30.11,ENE,60,1.0,-999.0,60,-99.99,,,0.00,weatherlink.com 1.10,2013-11-24 16:24:00,
2013-11-24 08:40:00,42.5,30.0,30.11,ENE,60,0.0,-999.0,61,-99.99,,,0.00,weatherlink.com 1.10,2013-11-24 16:40:00,
2013-11-24 08:55:00,44.1,31.0,30.12,ENE,60,0.0,-999.0,60,-99.99,,,0.00,weatherlink.com 1.10,2013-11-24 16:55:00,
2013-11-24 09:10:00,45.9,33.0,30.12,ENE,60,0.0,-999.0,62,-99.99,,,0.00,weatherlink.com 1.10,2013-11-24 17:10:00,
2013-11-24 09:24:00,49.1,31.0,30.12,ENE,60,2.0,-999.0,50,-99.99,,,0.00,weatherlink.com 1.10,2013-11-24 17:24:00,
2013-11-24 09:39:00,51.8,30.0,30.12,ENE,60,0.0,-999.0,44,-99.99,,,0.00,weatherlink.com 1.10,2013-11-24 17:39:00,
2013-11-24 09:54:00,53.2,29.0,30.12,ENE,60,1.0,-999.0,39,-99.99,,,0.00,weatherlink.com 1.10,2013-11-24 17:54:00,
2013-11-24 10:10:00,56.5,28.0,30.13,ENE,60,1.0,-999.0,34,-99.99,,,0.00,weatherlink.com 1.10,2013-11-24 18:10:00,
2013-11-24 10:25:00,58.2,29.0,30.13,ENE,60,2.0,-999.0,33,-99.99,,,0.00,weatherlink.com 1.10,2013-11-24 18:25:00,
2013-11-24 10:40:00,59.6,33.0,30.13,SSE,164,1.0,-999.0,37,-99.99,,,0.00,weatherlink.com 1.10,2013-11-24 18:40:00,
2013-11-24 10:55:00,59.9,34.0,30.13,West,272,3.0,-999.0,38,-99.99,,,0.00,weatherlink.com 1.10,2013-11-24 18:55:00,
2013-11-24 11:10:00,57.2,35.0,30.13,West,269,2.0,-999.0,44,-99.99,,,0.00,weatherlink.com 1.10,2013-11-24 19:10:00,
2013-11-24 11:25:00,58.4,31.0,30.12,NNW,338,2.0,-999.0,36,-99.99,,,0.00,weatherlink.com 1.10,2013-11-24 19:25:00,
2013-11-24 11:40:00,57.8,36.0,30.12,WNW,292,3.0,-999.0,44,-99.99,,,0.00,weatherlink.com 1.10,2013-11-24 19:40:00,
2013-11-24 11:55:00,57.7,42.0,30.11,WNW,294,4.0,-999.0,57,-99.99,,,0.00,weatherlink.com 1.10,2013-11-24 19:55:00,
2013-11-24 12:09:00,58.7,39.0,30.11,North,5,4.0,-999.0,49,-99.99,,,0.00,weatherlink.com 1.10,2013-11-24 20:09:00,
2013-11-24 12:25:00,60.4,40.0,30.11,West,259,2.0,-999.0,48,-99.99,,,0.00,weatherlink.com 1.10,2013-11-24 20:25:00,
2013-11-24 12:40:00,62.2,44.0,30.11,SW,227,5.0,-999.0,51,-99.99,,,0.00,weatherlink.com 1.10,2013-11-24 20:40:00,
2013-11-24 12:55:00,62.4,46.0,30.10,SW,236,4.0,-999.0,56,-99.99,,,0.00,weatherlink.com 1.10,2013-11-24 20:55:00,
2013-11-24 13:10:00,61.9,46.0,30.10,SSW,212,2.0,-999.0,57,-99.99,,,0.00,weatherlink.com 1.10,2013-11-24 21:10:00,
2013-11-24 13:24:00,62.1,48.0,30.09,SSW,201,7.0,-999.0,60,-99.99,,,0.00,weatherlink.com 1.10,2013-11-24 21:24:00,
2013-11-24 13:39:00,62.5,49.0,30.09,SSW,211,5.0,-999.0,62,-99.99,,,0.00,weatherlink.com 1.10,2013-11-24 21:39:00,
2013-11-24 13:55:00,62.2,49.0,30.09,SW,217,9.0,-999.0,62,-99.99,,,0.00,weatherlink.com 1.10,2013-11-24 21:55:00,
2013-11-24 14:10:00,61.1,49.0,30.10,SW,223,10.0,-999.0,65,-99.99,,,0.00,weatherlink.com 1.10,2013-11-24 22:10:00,
2013-11-24 14:24:00,59.7,49.0,30.10,SSW,210,9.0,-999.0,68,-99.99,,,0.00,weatherlink.com 1.10,2013-11-24 22:24:00,
2013-11-24 14:39:00,59.5,48.0,30.11,SSW,213,9.0,-999.0,67,-99.99,,,0.00,weatherlink.com 1.10,2013-11-24 22:39:00,
2013-11-24 14:55:00,59.4,48.0,30.11,SSW,209,7.0,-999.0,66,-99.99,,,0.00,weatherlink.com 1.10,2013-11-24 22:55:00,
2013-11-24 15:10:00,59.7,48.0,30.11,SSW,198,5.0,-999.0,65,-99.99,,,0.00,weatherlink.com 1.10,2013-11-24 23:10:00,
2013-11-24 15:25:00,58.5,48.0,30.12,SSW,213,9.0,-999.0,68,-99.99,,,0.00,weatherlink.com 1.10,2013-11-24 23:25:00,
2013-11-24 15:40:00,58.0,47.0,30.12,South,186,7.0,-999.0,68,-99.99,,,0.00,weatherlink.com 1.10,2013-11-24 23:40:00,
2013-11-24 15:55:00,57.6,48.0,30.12,SSW,211,6.0,-999.0,70,-99.99,,,0.00,weatherlink.com 1.10,2013-11-24 23:55:00,
2013-11-24 16:10:00,57.0,48.0,30.13,SSW,202,3.0,-999.0,73,-99.99,,,0.00,weatherlink.com 1.10,2013-11-25 00:10:00,
2013-11-24 16:24:00,55.9,47.0,30.13,South,179,2.0,-999.0,73,-99.99,,,0.00,weatherlink.com 1.10,2013-11-25 00:24:00,
2013-11-24 16:40:00,55.1,47.0,30.12,SSE,164,4.0,-999.0,74,-99.99,,,0.00,weatherlink.com 1.10,2013-11-25 00:40:00,
2013-11-24 16:54:00,54.4,47.0,30.13,South,170,0.0,-999.0,75,-99.99,,,0.00,weatherlink.com 1.10,2013-11-25 00:54:00,
2013-11-24 17:10:00,53.2,45.0,30.13,SSE,161,0.0,-999.0,75,-99.99,,,0.00,weatherlink.com 1.10,2013-11-25 01:10:00,
2013-11-24 17:24:00,52.0,45.0,30.13,East,86,2.0,-999.0,76,-99.99,,,0.00,weatherlink.com 1.10,2013-11-25 01:24:00,
2013-11-24 17:40:00,50.8,44.0,30.14,East,86,2.0,-999.0,78,-99.99,,,0.00,weatherlink.com 1.10,2013-11-25 01:40:00,
2013-11-24 17:55:00,49.9,44.0,30.14,East,86,2.0,-999.0,79,-99.99,,,0.00,weatherlink.com 1.10,2013-11-25 01:55:00,
2013-11-24 18:10:00,49.0,43.0,30.14,East,86,2.0,-999.0,80,-99.99,,,0.00,weatherlink.com 1.10,2013-11-25 02:10:00,
2013-11-24 18:24:00,48.3,43.0,30.15,East,83,2.0,-999.0,81,-99.99,,,0.00,weatherlink.com 1.10,2013-11-25 02:24:00,
2013-11-24 18:40:00,47.8,42.0,30.15,East,83,1.0,-999.0,81,-99.99,,,0.00,weatherlink.com 1.10,2013-11-25 02:40:00,
2013-11-24 18:54:00,47.3,42.0,30.16,East,83,2.0,-999.0,81,-99.99,,,0.00,weatherlink.com 1.10,2013-11-25 02:54:00,
2013-11-24 19:10:00,46.6,41.0,30.16,East,83,5.0,-999.0,81,-99.99,,,0.00,weatherlink.com 1.10,2013-11-25 03:10:00,
2013-11-24 19:25:00,45.7,41.0,30.16,ENE,57,2.0,-999.0,82,-99.99,,,0.00,weatherlink.com 1.10,2013-11-25 03:25:00,
2013-11-24 19:40:00,44.9,40.0,30.16,ENE,57,3.0,-999.0,82,-99.99,,,0.00,weatherlink.com 1.10,2013-11-25 03:40:00,
2013-11-24 19:55:00,44.4,40.0,30.17,ENE,57,3.0,-999.0,84,-99.99,,,0.00,weatherlink.com 1.10,2013-11-25 03:55:00,
2013-11-24 20:10:00,44.2,40.0,30.17,ENE,57,2.0,-999.0,84,-99.99,,,0.00,weatherlink.com 1.10,2013-11-25 04:10:00,
2013-11-24 20:25:00,43.9,40.0,30.17,ENE,57,2.0,-999.0,85,-99.99,,,0.00,weatherlink.com 1.10,2013-11-25 04:25:00,
2013-11-24 20:39:00,43.6,39.0,30.17,ENE,57,2.0,-999.0,85,-99.99,,,0.00,weatherlink.com 1.10,2013-11-25 04:39:00,
2013-11-24 20:55:00,43.4,39.0,30.17,ENE,57,2.0,-999.0,85,-99.99,,,0.00,weatherlink.com 1.10,2013-11-25 04:55:00,
2013-11-24 21:10:00,43.2,39.0,30.17,ENE,57,2.0,-999.0,85,-99.99,,,0.00,weatherlink.com 1.10,2013-11-25 05:10:00,
2013-11-24 21:24:00,43.1,39.0,30.17,ENE,57,2.0,-999.0,85,-99.99,,,0.00,weatherlink.com 1.10,2013-11-25 05:24:00,
2013-11-24 21:40:00,42.9,39.0,30.18,ENE,57,2.0,-999.0,85,-99.99,,,0.00,weatherlink.com 1.10,2013-11-25 05:40:00,
2013-11-24 21:54:00,42.7,39.0,30.19,ENE,57,2.0,-999.0,85,-99.99,,,0.00,weatherlink.com 1.10,2013-11-25 05:54:00,
2013-11-24 22:09:00,42.7,38.0,30.19,ENE,57,0.0,-999.0,84,-99.99,,,0.00,weatherlink.com 1.10,2013-11-25 06:09:00,
2013-11-24 22:24:00,42.7,38.0,30.19,ENE,69,3.0,-999.0,84,-99.99,,,0.00,weatherlink.com 1.10,2013-11-25 06:24:00,
2013-11-24 22:39:00,43.0,39.0,30.19,ENE,69,3.0,-999.0,84,-99.99,,,0.00,weatherlink.com 1.10,2013-11-25 06:39:00,
2013-11-24 22:55:00,43.2,38.0,30.19,ENE,67,3.0,-999.0,83,-99.99,,,0.00,weatherlink.com 1.10,2013-11-25 06:55:00,
2013-11-24 23:10:00,43.2,38.0,30.19,ENE,67,3.0,-999.0,82,-99.99,,,0.00,weatherlink.com 1.10,2013-11-25 07:10:00,
2013-11-24 23:24:00,42.8,37.0,30.19,ENE,67,3.0,-999.0,81,-99.99,,,0.00,weatherlink.com 1.10,2013-11-25 07:24:00,
2013-11-24 23:40:00,42.5,37.0,30.19,ENE,67,2.0,-999.0,82,-99.99,,,0.00,weatherlink.com 1.10,2013-11-25 07:40:00,
2013-11-24 23:55:00,42.6,37.0,30.19,ENE,67,2.0,-999.0,81,-99.99,,,0.00,weatherlink.com 1.10,2013-11-25 07:55:00,